Location: Cisewo
(53.3833°N, 14.9000°E)
Time: 11:31:07
(UTC+00:00)

Cosmos 2084 Rocket - Pass Details

Date: 18 April 2021
Orbit: 524 x 656 km, 62.8° (Epoch: 14 May)

Event Time Altitude Azimuth Distance (km) Brightness Sun altitude
Exits shadow 22:10:43 56° 302° (WNW) 647 3.8 -24.6°
Maximum altitude 22:11:02 58° 325° (NW) 634 3.8 -24.6°
Drops below altitude 10° 22:15:07 10° 45° (NE) 1,843 6.4 -24.8°
Sets 22:17:25 0° 50° (NE) 2,763 7.3 -24.8°
